Frederick, OK

2:46 AM CDT on March 23, 2017 (GMT -0500)
Frederick Municipal

Weather History for KFDR - February, 2012

Change the Weather History Date:

Friday, February 3, 2012

  Actual Average (KLTS) Record (KLTS)
Temperature  
Mean Temperature 58 °F -  
Max Temperature 71 °F 51 °F 59 °F (2015)
Min Temperature 46 °F 28 °F 20 °F (2017)
Degree Days  
Heating Degree Days 6    
Growing Degree Days 8 (Base 50)    
Moisture  
Dew Point 56 °F    
Average Humidity 84    
Maximum Humidity 94    
Minimum Humidity 63    
Precipitation  
Precipitation 0.00 in - - ()
Sea Level Pressure  
Sea Level Pressure 29.88 in    
Wind  
Wind Speed 17 mph (SSW)    
Max Wind Speed 30 mph    
Max Gust Speed 41 mph    
Visibility 9 miles    
Events Rain , Thunderstorm    
Averages and records for this station are not official NWS values.
T = Trace of Precipitation, MM = Missing Value Source: NWS Daily Summary

Daily Weather History Graph

Daily Weather History Graph

Search for Another Location

Airport or City:

Trip Planner

Search our weather history database for the weather conditions in past years. The results will help you decide how hot, cold, wet, or windy it might be!

Date:

Astronomy

Feb. 03, 2012 Rise Set
Actual Time 7:32 AM CST 6:07 PM CST
Civil Twilight 7:06 AM CST 6:33 PM CST
Nautical Twilight 6:36 AM CST 7:03 PM CST
Astronomical Twilight 6:06 AM CST 7:33 PM CST
Moon 2:15 PM CST (2/3) 4:03 AM CST (2/3)
Length of Visible Light 11h 27m
Length of Day
10h 35m
Waxing Gibbous, 82% of the Moon is Illuminated
Feb 3
Waxing Gibbous
Feb 7
Full
Feb 14
Last Quarter
Feb 21
New
Feb 29
First Quarter

Hourly Weather History & Observations

Time (CST) Temp. Windchill Dew Point Humidity Pressure Visibility Wind Dir Wind Speed Gust Speed Precip Events Conditions
12:53 AM 63.0 °F - 60.1 °F 90% 29.84 in 10.0 mi SSE 23.0 mph 29.9 mph N/A   Overcast
1:13 AM 62.6 °F - 60.8 °F 94% 29.87 in 10.0 mi SSE 18.4 mph - N/A   Overcast
1:53 AM 63.0 °F - 60.1 °F 90% 29.83 in 10.0 mi SSE 18.4 mph 26.5 mph N/A   Overcast
2:16 AM 62.6 °F - 60.8 °F 94% 29.85 in 10.0 mi SSE 17.3 mph - N/A   Overcast
2:53 AM 63.0 °F - 60.1 °F 90% 29.83 in 10.0 mi SSE 13.8 mph 21.9 mph N/A   Overcast
3:03 AM 62.6 °F - 60.8 °F 94% 29.86 in 10.0 mi SSE 13.8 mph - N/A   Overcast
3:21 AM 62.6 °F - 60.8 °F 94% 29.86 in 10.0 mi SSE 15.0 mph - N/A   Overcast
3:45 AM 62.6 °F - 60.8 °F 94% 29.86 in 10.0 mi SSE 15.0 mph - N/A   Overcast
3:53 AM 63.0 °F - 60.1 °F 90% 29.83 in 10.0 mi SSE 13.8 mph - N/A   Overcast
4:34 AM 62.6 °F - 60.8 °F 94% 29.84 in 10.0 mi SSE 16.1 mph - N/A   Overcast
4:53 AM 62.1 °F - 60.1 °F 93% 29.82 in 10.0 mi South 15.0 mph - N/A   Scattered Clouds
5:43 AM 62.6 °F - 60.8 °F 94% 29.85 in 10.0 mi SSE 12.7 mph - N/A   Overcast
5:53 AM 62.1 °F - 60.1 °F 93% 29.82 in 10.0 mi SSE 13.8 mph - N/A   Overcast
6:53 AM 62.1 °F - 60.1 °F 93% 29.83 in 9.0 mi SE 15.0 mph - N/A   Overcast
7:10 AM 60.8 °F - 59.0 °F 94% 29.85 in 8.0 mi SE 16.1 mph - N/A   Mostly Cloudy
7:17 AM 60.8 °F - 59.0 °F 94% 29.85 in 8.0 mi SE 16.1 mph - N/A   Scattered Clouds
7:53 AM 61.0 °F - 59.0 °F 93% 29.83 in 7.0 mi SSE 13.8 mph - N/A   Mostly Cloudy
8:03 AM 62.6 °F - 60.8 °F 94% 29.86 in 7.0 mi SE 12.7 mph - N/A   Mostly Cloudy
8:17 AM 62.6 °F - 60.8 °F 94% 29.86 in 7.0 mi SSE 11.5 mph - N/A   Overcast
8:53 AM 62.1 °F - 60.1 °F 93% 29.84 in 7.0 mi SE 13.8 mph - N/A   Overcast
9:44 AM 64.4 °F - 60.8 °F 88% 29.87 in 10.0 mi SSE 18.4 mph - N/A   Overcast
9:53 AM 64.0 °F - 61.0 °F 90% 29.84 in 10.0 mi SSE 20.7 mph - N/A   Overcast
10:06 AM 66.2 °F - 62.6 °F 88% 29.87 in 10.0 mi SSE 20.7 mph - N/A   Overcast
10:43 AM 68.0 °F - 62.6 °F 83% 29.86 in 10.0 mi SSE 19.6 mph - N/A   Overcast
10:53 AM 68.0 °F - 62.1 °F 81% 29.82 in 10.0 mi South 20.7 mph - N/A   Overcast
11:53 AM 69.1 °F - 62.1 °F 78% 29.82 in 10.0 mi South 20.7 mph 26.5 mph N/A   Overcast
12:02 PM 66.2 °F - 62.6 °F 88% 29.85 in 1.8 mi WSW 9.2 mph 26.5 mph 0.11 in Rain Heavy Rain
12:06 PM 66.2 °F - 62.6 °F 88% 29.85 in 2.0 mi WSW 12.7 mph - 0.12 in Rain , Thunderstorm Heavy Thunderstorms and Rain
12:12 PM 68.0 °F - 62.6 °F 83% 29.84 in 6.0 mi WSW 13.8 mph - 0.13 in Rain , Thunderstorm Light Thunderstorms and Rain
12:53 PM 71.1 °F - 60.1 °F 68% 29.80 in 10.0 mi WSW 21.9 mph 26.5 mph 0.13 in Thunderstorm Scattered Clouds
1:19 PM 71.6 °F - 60.8 °F 69% 29.83 in 10.0 mi WNW 17.3 mph - N/A   Clear
1:53 PM 70.0 °F - 59.0 °F 68% 29.79 in 10.0 mi WNW 16.1 mph - N/A   Clear
2:53 PM 68.0 °F - 55.0 °F 63% 29.81 in 10.0 mi NW 23.0 mph 31.1 mph N/A   Clear
3:53 PM 64.9 °F - 53.1 °F 65% 29.83 in 10.0 mi WNW 20.7 mph - N/A   Clear
4:53 PM 59.0 °F - 50.0 °F 72% 29.89 in 10.0 mi NW 20.7 mph 29.9 mph N/A   Scattered Clouds
5:00 PM 59.0 °F - 48.2 °F 67% 29.91 in 10.0 mi NW 26.5 mph 32.2 mph N/A   Mostly Cloudy
5:09 PM 57.2 °F - 48.2 °F 72% 29.92 in 10.0 mi NW 24.2 mph 33.4 mph N/A   Scattered Clouds
5:53 PM 53.1 °F - 46.0 °F 77% 29.95 in 10.0 mi NW 24.2 mph 32.2 mph N/A   Mostly Cloudy
6:53 PM 52.0 °F - 44.1 °F 74% 29.99 in 10.0 mi NW 19.6 mph 25.3 mph N/A   Overcast
7:53 PM 52.0 °F - 42.1 °F 69% 30.02 in 10.0 mi NW 20.7 mph - N/A   Overcast
8:41 PM 48.2 °F - 39.2 °F 71% 30.04 in 10.0 mi NW 23.0 mph 29.9 mph N/A   Scattered Clouds
8:53 PM 48.9 °F - 39.9 °F 71% 30.03 in 10.0 mi NW 27.6 mph 34.5 mph N/A   Clear
9:53 PM 46.9 °F - 37.9 °F 71% 30.04 in 10.0 mi NNW 29.9 mph 41.4 mph N/A   Clear
10:53 PM 46.0 °F 38.5 °F 37.9 °F 73% 30.05 in 10.0 mi NW 19.6 mph 28.8 mph N/A   Clear
11:53 PM 46.0 °F 37.6 °F 36.0 °F 68% 30.05 in 10.0 mi NW 24.2 mph 33.4 mph N/A   Clear